Weather History for KFKN - July, 2013

Change the Weather History Date:

Friday, July 26, 2013

  Actual Average (KORF) Record (KORF)
Temperature  
Mean Temperature 74 °F 80 °F  
Max Temperature 84 °F 87 °F 100 °F (1940)
Min Temperature 64 °F 72 °F 58 °F (1947)
Degree Days  
Heating Degree Days 0 0  
Month to date heating degree days 0  
Since 1 June heating degree days 6  
Since 1 July heating degree days 0  
Cooling Degree Days 9 15  
Month to date cooling degree days 384  
Year to date cooling degree days 865  
Since 1 June cooling degree days 699  
Growing Degree Days 24 (Base 50)    
Moisture  
Dew Point 67 °F    
Average Humidity 74    
Maximum Humidity 100    
Minimum Humidity 48    
Precipitation  
Precipitation 0.00 in 0.19 in 3.81 in (1974)
Month to date precipitation 4.19  
Year to date precipitation 25.47  
Snow  
Snow 0.00 in 0.00 in 0.00 in (2002)
Month to date snowfall 0.0  
Since 1 July snowfall 0.0  
Snow Depth -    
Sea Level Pressure  
Sea Level Pressure 30.06 in    
Wind  
Wind Speed 1 mph (NW)    
Max Wind Speed 8 mph    
Max Gust Speed -    
Visibility 10 miles    
Events      
T = Trace of Precipitation, MM = Missing Value Source: NWS Daily Summary

Daily Weather History Graph

Daily Weather History Graph

Search for Another Location

Airport or City:

Trip Planner

Search our weather history database for the weather conditions in past years. The results will help you decide how hot, cold, wet, or windy it might be!

Date:

Astronomy

Jul. 26, 2013 Rise Set
Actual Time 6:08 AM EDT 8:18 PM EDT
Civil Twilight 5:39 AM EDT 8:47 PM EDT
Nautical Twilight 5:04 AM EDT 9:23 PM EDT
Astronomical Twilight 4:25 AM EDT 10:01 PM EDT
Moon 10:41 PM EDT (7/26) 10:33 AM EDT (7/26)
Length of Visible Light 15h 08m
Length of Day
14h 10m
Waning Gibbous, 80% of the Moon is Illuminated
Jul 26
Waning Gibbous
Jul 29
Last Quarter
Aug 6
New
Aug 14
First Quarter
Aug 20
Full

Hourly Weather History & Observations

Time (EDT) Temp. Heat Index Dew Point Humidity Pressure Visibility Wind Dir Wind Speed Gust Speed Precip Events Conditions
12:15 AM 69.8 °F - 69.8 °F 100% 30.02 in 10.0 mi Calm Calm - N/A   Scattered Clouds
12:35 AM 69.8 °F - 69.8 °F 100% 30.03 in 10.0 mi Calm Calm - N/A   Scattered Clouds
12:55 AM 69.8 °F - 69.8 °F 100% 30.03 in 10.0 mi Calm Calm - N/A   Scattered Clouds
1:15 AM 69.8 °F - 69.8 °F 100% 30.02 in 10.0 mi Calm Calm - N/A   Clear
1:35 AM 69.8 °F - 69.8 °F 100% 30.03 in 10.0 mi Calm Calm - N/A   Clear
1:55 AM 68.0 °F - 68.0 °F 100% 30.02 in 10.0 mi Calm Calm - N/A   Clear
2:15 AM 68.0 °F - - N/A% 30.01 in 10.0 mi Calm Calm - N/A   Clear
2:35 AM 68.0 °F - - N/A% 30.01 in 10.0 mi Calm Calm - N/A   Clear
2:55 AM 68.0 °F - - N/A% 30.01 in 10.0 mi Calm Calm - N/A   Clear
3:15 AM 66.2 °F - - N/A% 30.01 in 10.0 mi Calm Calm - N/A   Clear
3:35 AM 66.2 °F - - N/A% 30.02 in 10.0 mi Calm Calm - N/A   Clear
3:55 AM 66.2 °F - - N/A% 30.02 in 10.0 mi Calm Calm - N/A   Clear
4:15 AM 66.2 °F - - N/A% 30.02 in 10.0 mi Calm Calm - N/A   Clear
4:35 AM 66.2 °F - - N/A% 30.02 in 10.0 mi Calm Calm - N/A   Clear
4:55 AM 64.4 °F - - N/A% 30.03 in 10.0 mi Calm Calm - N/A   Clear
5:15 AM 64.4 °F - - N/A% 30.04 in 10.0 mi Calm Calm - N/A   Clear
5:35 AM 64.4 °F - - N/A% 30.04 in 7.0 mi WNW 4.6 mph - N/A   Clear
5:55 AM 66.2 °F - - N/A% 30.05 in 5.0 mi Calm Calm - N/A   Clear
6:15 AM 64.4 °F - - N/A% 30.06 in 7.0 mi Calm Calm - N/A   Clear
6:35 AM 64.4 °F - - N/A% 30.07 in 5.0 mi Calm Calm - N/A   Clear
6:55 AM 66.2 °F - - N/A% 30.08 in 7.0 mi Calm Calm - N/A   Clear
7:15 AM 66.2 °F - - N/A% 30.07 in 4.0 mi Calm Calm - N/A   Clear
7:35 AM 66.2 °F - - N/A% 30.08 in 5.0 mi Calm Calm - N/A   Clear
7:55 AM 68.0 °F - - N/A% 30.08 in 7.0 mi Calm Calm - N/A   Scattered Clouds
8:15 AM 69.8 °F - 69.8 °F 100% 30.09 in 10.0 mi Calm Calm - N/A   Scattered Clouds
8:35 AM 69.8 °F - 69.8 °F 100% 30.10 in 10.0 mi Calm Calm - N/A   Scattered Clouds
8:55 AM 71.6 °F - 71.6 °F 100% 30.10 in 10.0 mi Calm Calm - N/A   Scattered Clouds
9:15 AM 73.4 °F - 69.8 °F 88% 30.10 in 10.0 mi Calm Calm - N/A   Mostly Cloudy
9:35 AM 73.4 °F - 69.8 °F 88% 30.10 in 10.0 mi Calm Calm - N/A   Mostly Cloudy
9:55 AM 75.2 °F - 66.2 °F 73% 30.11 in 10.0 mi Calm Calm - N/A   Scattered Clouds
10:15 AM 75.2 °F - 68.0 °F 78% 30.11 in 10.0 mi NW 3.5 mph - N/A   Mostly Cloudy
10:35 AM 77.0 °F - 68.0 °F 74% 30.11 in 10.0 mi WNW 4.6 mph - N/A   Scattered Clouds
10:55 AM 77.0 °F - 66.2 °F 69% 30.11 in 10.0 mi North 3.5 mph - N/A   Mostly Cloudy
11:15 AM 78.8 °F - 66.2 °F 65% 30.10 in 10.0 mi Calm Calm - N/A   Scattered Clouds
11:35 AM 78.8 °F - 64.4 °F 61% 30.10 in 10.0 mi Calm Calm - N/A   Clear
11:55 AM 80.6 °F 81.8 °F 62.6 °F 54% 30.09 in 10.0 mi NE 3.5 mph - N/A   Clear
12:15 PM 80.6 °F 82.3 °F 64.4 °F 58% 30.09 in 10.0 mi NNE 3.5 mph - N/A   Clear
12:35 PM 80.6 °F 81.8 °F 62.6 °F 54% 30.09 in 10.0 mi Calm Calm - N/A   Scattered Clouds
12:55 PM 82.4 °F 83.9 °F 64.4 °F 54% 30.09 in 10.0 mi Calm Calm - N/A   Scattered Clouds
1:15 PM 82.4 °F 83.9 °F 64.4 °F 54% 30.08 in 10.0 mi West 8.1 mph - N/A   Scattered Clouds
1:35 PM 80.6 °F 82.3 °F 64.4 °F 58% 30.09 in 10.0 mi North 5.8 mph - N/A   Scattered Clouds
1:55 PM 82.4 °F 83.4 °F 62.6 °F 51% 30.08 in 10.0 mi Calm Calm - N/A   Scattered Clouds
2:15 PM 82.4 °F 83.9 °F 64.4 °F 54% 30.08 in 10.0 mi WNW 5.8 mph - N/A   Scattered Clouds
2:35 PM 82.4 °F 83.9 °F 64.4 °F 54% 30.08 in 10.0 mi WNW 4.6 mph - N/A   Scattered Clouds
2:55 PM 82.4 °F 83.4 °F 62.6 °F 51% 30.08 in 10.0 mi West 5.8 mph - N/A   Clear
3:15 PM 82.4 °F 83.9 °F 64.4 °F 54% 30.08 in 10.0 mi NW 5.8 mph - N/A   Scattered Clouds
3:35 PM 84.2 °F 85.0 °F 62.6 °F 48% 30.07 in 10.0 mi NNW 6.9 mph - N/A   Clear
3:55 PM 84.2 °F 85.0 °F 62.6 °F 48% 30.07 in 10.0 mi NW 5.8 mph - N/A   Clear
4:15 PM 84.2 °F 85.0 °F 62.6 °F 48% 30.07 in 10.0 mi West 6.9 mph - N/A   Clear
4:35 PM 84.2 °F 85.0 °F 62.6 °F 48% 30.06 in 10.0 mi Calm Calm - N/A   Clear
4:55 PM 84.2 °F 85.0 °F 62.6 °F 48% 30.06 in 10.0 mi WSW 3.5 mph - N/A   Clear
5:15 PM 84.2 °F 85.0 °F 62.6 °F 48% 30.06 in 10.0 mi West 5.8 mph - N/A   Clear
5:35 PM 82.4 °F 83.9 °F 64.4 °F 54% 30.06 in 10.0 mi WNW 3.5 mph - N/A   Clear
5:55 PM 84.2 °F 85.0 °F 62.6 °F 48% 30.06 in 10.0 mi Calm Calm - N/A   Scattered Clouds
6:15 PM 82.4 °F 84.6 °F 66.2 °F 58% 30.06 in 10.0 mi Calm Calm - N/A   Clear
6:35 PM 82.4 °F 83.4 °F 62.6 °F 51% 30.06 in 10.0 mi Calm Calm - N/A   Clear
6:55 PM 82.4 °F 84.6 °F 66.2 °F 58% 30.05 in 10.0 mi Calm Calm - N/A   Clear
7:15 PM 80.6 °F 83.9 °F 69.8 °F 70% 30.06 in 10.0 mi Calm Calm - N/A   Clear
7:35 PM 80.6 °F 82.7 °F 66.2 °F 61% 30.06 in 10.0 mi Calm Calm - N/A   Clear
7:55 PM 80.6 °F 83.9 °F 69.8 °F 70% 30.05 in 10.0 mi Calm Calm - N/A   Clear
8:15 PM 78.8 °F - 69.8 °F 74% 30.05 in 10.0 mi Calm Calm - N/A   Clear
8:35 PM 75.2 °F - 69.8 °F 83% 30.06 in 10.0 mi Calm Calm - N/A   Clear
8:55 PM 73.4 °F - 71.6 °F 94% 30.07 in 10.0 mi Calm Calm - N/A   Clear
9:15 PM 73.4 °F - 73.4 °F 100% 30.07 in 10.0 mi Calm Calm - N/A   Clear
9:35 PM 71.6 °F - 71.6 °F 100% 30.07 in 10.0 mi Calm Calm - N/A   Clear
9:55 PM 71.6 °F - 71.6 °F 100% 30.07 in 10.0 mi Calm Calm - N/A   Clear
10:15 PM 73.4 °F - 69.8 °F 88% 30.08 in 10.0 mi ESE 3.5 mph - N/A   Clear
10:35 PM 73.4 °F - 71.6 °F 94% 30.08 in 10.0 mi SE 4.6 mph - N/A   Clear
10:55 PM 71.6 °F - 71.6 °F 100% 30.08 in 10.0 mi SSE 3.5 mph - N/A   Clear
11:15 PM 71.6 °F - 71.6 °F 100% 30.09 in 10.0 mi Calm Calm - N/A   Clear
11:35 PM 71.6 °F - 71.6 °F 100% 30.08 in 10.0 mi Calm Calm - N/A   Clear
11:55 PM 71.6 °F - 71.6 °F 100% 30.08 in 10.0 mi SE 3.5 mph - N/A   Clear